Regional Weather Roundup
Issued by NWS Sterling, VA

Home | Current Version | Previous Version | Graphics & Text | Print | Product List | Glossary On
Versions: 1 2 3 4 5 6 7 8 9 10 11 12 13 14 15 16 17 18 19 20 21 22 23 24 25 26 27 28 29 30 31 32 33 34 35 36 37 38 39 40 41 42 43 44 45 46 47 48 49 50
000
ASUS41 KLWX 251910
RWRLWX

REGIONAL WEATHER ROUNDUP
NATIONAL WEATHER SERVICE BALTIMORE MD/WASHINGTON DC
200 PM EST THU DEC 25 2014

Note: "FAIR" indicates few or no clouds below 12,000 feet
with no significant weather and/or obstructions to visibility.
 TC=TEMPERATURE CELSIUS

 * =Non NWS site. Station does not report precipitation (e.g. rain,
    snow, etc.), thunder, or fog.

DCZ001-MDZ009-015-VAZ040>042-051-053>054-252000-
WASHINGTON METRO

CITY           SKY/WX    TMP DP  RH WIND       PRES   REMARKS
WASHINGTON NAT MOSUNNY   56  30  37 NW14      29.99R
DULLES         MOSUNNY   52  31  44 W16G28    29.99R
ANDREWS AFB    MOSUNNY   51  30  44 NW16G26   29.98R
FT BELVOIR     SUNNY     55  30  38 NW18      29.99R
QUANTICO       SUNNY     56  29  35 N14       30.00R
COLLEGE PARK*  MOSUNNY   54  30  40 NW22G31   29.98R
LEESBURG*      MOSUNNY   52  34  50 NW21G32   29.98S
MANASSAS*      SUNNY     54  30  40 NW20G25   29.98
GAITHERSBURG*  CLOUDY    50  32  50 NW14G23   30.00S

$$

MDZ006>007-011-014-252000-
BALTIMORE METRO

CITY           SKY/WX    TMP DP  RH WIND       PRES   REMARKS
BWI AIRPORT    PTSUNNY   53  31  42 W16G28    29.96R
MD SCIENCE CTR   N/A     52  29  41 MISG      29.97R
MARTIN STATE   PTSUNNY   54  34  47 W18G26    29.97R
ANNAPOLIS      CLOUDY    52  30  43 W9G21     29.98R
FORT MEADE*    CLOUDY    52  32  46 W15G29    29.99R

$$

MDZ012-015-019>023-252000-
MARYLAND EASTERN SHORE

CITY           SKY/WX    TMP DP  RH WIND       PRES   REMARKS
OCEAN CITY     SUNNY     54  30  40 NW18G35   29.95R
SALISBURY      SUNNY     56  30  37 W15G35    29.96R
BAY BRIDGE AP*   N/A     50  32  50 W16G26    29.98R
CAMBRIDGE*     MOSUNNY   55  32  41 W10G17    29.97R
EASTON*        CLOUDY    54  36  50 NW15G25   30.02R

$$

MDZ017>025-252000-
SOUTHERN MARYLAND

CITY           SKY/WX    TMP DP  RH WIND       PRES   REMARKS
PATUXENT RIVER SUNNY     54  31  41 NW15      29.98R
ST INIGOES     SUNNY     55  30  38 W16G23    29.98R
LEONARDTOWN*   SUNNY     54  30  40 NW9G18    29.99R

$$

MDZ003>005-252000-
NORTH CENTRAL MARYLAND

CITY           SKY/WX    TMP DP  RH WIND       PRES   REMARKS
FREDERICK*     PTSUNNY   55  28  35 MISG      30.00R
HAGERSTOWN APT PTSUNNY   49  31  49 NW15      29.97R
WESTMINSTER*   PTSUNNY   48  30  49 W18G26    29.95R

$$

MDZ501>502-252000-
WESTERN MARYLAND

CITY           SKY/WX    TMP DP  RH WIND       PRES   REMARKS
OAKLAND*       PTSUNNY   32 N/A N/A W21G32    29.96R HAZE    WCI  20
CUMBERLAND*    MOSUNNY   46  32  57 W10       30.05R

$$

VAZ025>031-252000-
SHENANDOAH VALLEY

CITY           SKY/WX    TMP DP  RH WIND       PRES   REMARKS
WINCHESTER*    CLOUDY    50  28  43 NW16      30.00R
FRONT ROYAL*   FAIR      50  32  50 W12       29.99R
LURAY*         FAIR      54  32  43 W9G16     30.00R
NEW MARKET*    FAIR      50  30  45 NW8G17    30.00R
STAUNTON*      SUNNY     51  29  41 W9        30.02R
WAYNESBORO*    FAIR      49  29  45 SW12G17   30.01R

$$

WVZ021-048>050-054>055-252000-
EASTERN WEST VIRGINIA PANHANDLE

CITY           SKY/WX    TMP DP  RH WIND       PRES   REMARKS
MARTINSBURG    PTSUNNY   51  29  42 W16G25    30.00R
PETERSBURG*    MOSUNNY   46  26  47 W12G24    30.05R

$$

VAZ036>039-050-252000-
CENTRAL FOOTHILLS

CITY           SKY/WX    TMP DP  RH WIND       PRES   REMARKS
CHARLOTTESVILL SUNNY     54  28  36 W10       29.99R
CULPEPER*      SUNNY     57  28  33 W5        30.00R
ORANGE*        SUNNY     55  32  41 SW14      30.01R
GORDONSVILLE*  FAIR      54  30  38 W6        29.99R
WARRENTON*     FAIR      58  38  46 W8        29.99R

$$

VAZ055>057-252000-
NORTH AND CENTRAL PIEDMONT

CITY           SKY/WX    TMP DP  RH WIND       PRES   REMARKS
FREDERICKSBRG* SUNNY     57  31  36 W10G20    29.98S
STAFFORD*      SUNNY     55  28  34 CALM      30.03R

$$

NCZ024-NYZ072-PAZ021-071-VAZ022-071-252000-
OTHER REGIONAL OBSERVATIONS

CITY           SKY/WX    TMP DP  RH WIND       PRES   REMARKS
NEW YORK CITY  CLOUDY    51  27  39 W12G29    29.84R
PHILADELPHIA   PTSUNNY   52  29  41 W24       29.92R
PITTSBURGH     CLOUDY    39  29  67 W18G24    30.02R
ROANOKE        MOSUNNY   49  28  44 W21G30    30.09R
RICHMOND       MOSUNNY   58  30  34 NW14      30.01R
RALEIGH        SUNNY     56  33  42 W10G20    30.08R

$$

ANZ530>537-252000-
MARINE OBSERVATIONS

STATION/POSITION TIME  TEMP    WIND        PRES
                       AIR SEA DIR/SP/G
                 (UTC) (F)     (DEG/KT/KT) (MB)
THOMAS PT LIGHT  1900   51 43  300/ 16/ 18 1016.3R
BALT KEY BRIDGE  1900   51     280/ 16/ 19 1014.2R
COVE POINT       1900   51     330/ 15/ 22 1014.8S
LEWISETTA        1900   53 44  330/ 11/ 15 1015.0S
SOLOMONS ISLAND  1900      44                N/A
PINEY POINT      1900          330/ 14/ 15   N/A

$$




USA.gov is the U.S. government's official web portal to all federal, state and local government web resources and services.